Hourly Data Report for October 11, 2016

All times are specified in Local Standard Time (LST). Add 1 hour to adjust for Daylight Saving Time where and when it is observed.

KAMLOOPS A
BRITISH COLUMBIA

50°42'09.000" N
120°26'55.000" W
345.30 m
1163781
71887
YKA

Download Data

Hourly Data (October 2016)
Hourly Data Report for October 11, 2016
Temp Definition
°C
Dew Point Temp Definition
°C
Rel Hum Definition
%
Wind Dir Definition
10's deg

Wind Spd Definition
km/h
Visibility Definition
km
Stn Press Definition
kPa
Hmdx Definition


Wind Chill Definition


Weather Definition


TIME
00:00 Legend Double Dagger 4.7 -2.6 59 25 10 64.4 98.38     LegendNANA
01:00 Legend Double Dagger 4.2 -2.9 60 27 19 64.4 98.41     Mainly Clear
02:00 Legend Double Dagger 3.7 -2.7 63 26 17 64.4 98.47     LegendNANA
03:00 Legend Double Dagger 3.0 -2.3 68 25 15 64.4 98.46     LegendNANA
04:00 Legend Double Dagger 2.3 -2.8 69 25 14 64.4 98.49     Clear
05:00 Legend Double Dagger 1.9 -2.4 73 23 16 64.4 98.53     LegendNANA
06:00 Legend Double Dagger 1.6 -2.9 72 22 12 64.4 98.57     LegendNANA
07:00 Legend Double Dagger -0.5 -3.0 83 10 4 64.4 98.65   -2 Clear
08:00 Legend Double Dagger 2.7 -2.0 71 4 3 64.4 98.69     LegendNANA
09:00 Legend Double Dagger 4.4 -2.0 63 28 9 64.4 98.73     LegendNANA
10:00 Legend Double Dagger 5.5 -2.3 57 30 11 64.4 98.73     Mainly Clear
11:00 Legend Double Dagger 6.7 -2.7 51 29 5 64.4 98.68     LegendNANA
12:00 Legend Double Dagger 7.8 -3.1 46 21 6 64.4 98.61     LegendNANA
13:00 Legend Double Dagger 9.1 -3.1 42 14 8 64.4 98.52     Mainly Clear
14:00 Legend Double Dagger 10.2 -3.8 37 9 12 64.4 98.45     LegendNANA
15:00 Legend Double Dagger 10.5 -5.5 32 10 8 64.4 98.38     LegendNANA
16:00 Legend Double Dagger 10.3 -3.4 38 6 13 64.4 98.35     Mainly Clear
17:00 Legend Double Dagger 8.2 -3.0 45 10 5 64.4 98.34     LegendNANA
18:00 Legend Double Dagger 7.3 -3.3 47 6 10 64.4 98.37     LegendNANA
19:00 Legend Double Dagger 5.1 -1.1 64 12 8 64.4 98.36     Mainly Clear
20:00 Legend Double Dagger 3.8 -2.0 66 11 7 64.4 98.34     LegendNANA
21:00 Legend Double Dagger 3.0 -2.5 67 6 7 64.4 98.35     LegendNANA
22:00 Legend Double Dagger 0.6 -2.8 78 8 12 64.4 98.36     Clear
23:00 Legend Double Dagger 1.9 -2.1 75 10 17 64.4 98.36     LegendNANA

Notes on Data Quality.

Legend

  • E = Estimated
  • M = Missing
  • NA = Not Available
  • ‡ = Partner data that is not subject to review by the National Climate Archives
Date modified: